Location: Saluda
(35.2377°N, 82.3468°W)
Time: 03:43:58
(UTC+00:00)

Vanguard 2 Rocket - Pass Details

Date: 03 October 2022
Orbit: 555 x 3321 km, 32.9° (Epoch: 04 December)

Event Time Altitude Azimuth Distance (km) Brightness Sun altitude
Rises 03:43:24 0° 239° (WSW) 7,032 11.5 -51.7°
Reaches altitude 10° 03:48:38 10° 236° (WSW) 5,743 10.9 -52.4°
Enters shadow 03:53:19 21° 232° (SW) 4,544 10.3 -53.0°
Maximum altitude 04:04:24 59° 163° (SSE) 2,244 - -54.3°
Drops below altitude 10° 04:13:27 10° 86° (E) 3,450 - -55.3°
Sets 04:15:49 0° 82° (E) 4,145 - -55.5°
